Location: Unspecified
(54.1780°N, 0.0000°E)
Time: 15:35:04
(UTC+00:00)

Explorer 7 - Pass Details

Date: 22 June 2019
Orbit: 485 x 680 km, 50.3° (Epoch: 16 July)

Event Time Altitude Azimuth Distance (km) Brightness Sun altitude
Rises 12:00:04 0° 265° (W) 2,877 10.5 59.3°
Reaches altitude 10° 12:02:21 10° 261° (W) 2,002 9.9 59.3°
Maximum altitude 12:06:52 53° 185° (S) 800 10.6 59.2°
Drops below altitude 10° 12:11:34 10° 109° (ESE) 2,092 10.0 59.2°
Sets 12:14:00 0° 105° (ESE) 3,020 10.7 59.2°
